Location: Brienzwiler
(46.7508°N, 8.1014°E)
Time: 08:06:32
(UTC+00:00)

Cosmos 2151 - Pass Details

Date: 05 July 2020
Orbit: 580 x 602 km, 82.5° (Epoch: 05 August)

Event Time Altitude Azimuth Distance (km) Brightness Sun altitude
Exits shadow 21:47:16 22° 110° (ESE) 1,329 4.4 -16.6°
Maximum altitude 21:48:16 24° 88° (E) 1,256 4.4 -16.7°
Drops below altitude 10° 21:51:43 10° 35° (NE) 1,942 6.0 -16.9°
Sets 21:54:14 0° 21° (NNE) 2,846 7.2 -17.1°
